[Date Prev][Date Next][Thread Prev][Thread Next] - [Date Index][Thread Index][Author Index]
2 Line ISS Keps 2-2
- Subject: [sarex] 2 Line ISS Keps 2-2
- From: "Dave Larsen PhD" <doc@xxxxxxxxxxx>
- Date: Mon, 2 Feb 2004 03:01:47 -0800
ISS
1 25544U 98067A 04033.21740845 .00016613 00000-0 15953-3 0 1154
2 25544 51.6302 297.8804 0007770 118.2665 19.4657 15.66721771296986
----
Via the sarex mailing list at AMSAT.ORG courtesy of AMSAT-NA.
To unsubscribe, send "unsubscribe sarex" to Majordomo@amsat.org
AMSAT Home